This is the latest recevied weather packets stored in our database for station/object KA9CBS. If no packets are shown the sender has not sent any weather packets the latest 10 day(s).
| Time | Temp. | Humidity | Pressure | Rain* | Wind** | Luminosity | Snow |
|---|---|---|---|---|---|---|---|
| 1787995434 | 18.33° C | 93% | 1021.4 hPa | 0 mm | - | 0 W/m² | - |
| 1787995130 | 17.78° C | 95% | 1021.5 hPa | 0 mm | - | 0 W/m² | - |
| 1787994825 | 17.78° C | 96% | 1021.4 hPa | 0 mm | - | 0 W/m² | - |
| 1787994517 | 17.78° C | 94% | 1021.6 hPa | 0 mm | - | 0 W/m² | - |
| 1787994212 | 17.78° C | 94% | 1021.4 hPa | 0 mm | - | 0 W/m² | - |
| 1787993910 | 17.78° C | 93% | 1021.9 hPa | 0 mm | - | 0 W/m² | - |
| 1787993605 | 17.78° C | 93% | 1021.7 hPa | 0 mm | - | 0 W/m² | - |
| 1787993301 | 17.78° C | 91% | 1022 hPa | 0 mm | - | 0 W/m² | - |
| 1787993001 | 18.33° C | 91% | 1022 hPa | 0 mm | - | 0 W/m² | - |
| 1787992696 | 18.89° C | 90% | 1022 hPa | 0 mm | - | 0 W/m² | - |
| 1787992390 | 18.33° C | 91% | 1021.9 hPa | 0 mm | - | 0 W/m² | - |
| 1787992089 | 18.33° C | 90% | 1022 hPa | 0 mm | - | 0 W/m² | - |
| 1787991788 | 18.89° C | 89% | 1021.6 hPa | 0 mm | - | 0 W/m² | - |
| 1787991484 | 18.89° C | 90% | 1021.5 hPa | 0 mm | - | 0 W/m² | - |
| 1787991181 | 18.89° C | 89% | 1021.7 hPa | 0 mm | - | 0 W/m² | - |
| 1787990875 | 18.89° C | 88% | 1021.9 hPa | 0 mm | - | 0 W/m² | - |
| 1787990570 | 19.44° C | 87% | 1021.9 hPa | 0 mm | - | 0 W/m² | - |
| 1787990268 | 18.89° C | 88% | 1021.7 hPa | 0 mm | - | 0 W/m² | - |
| 1787989964 | 18.89° C | 89% | 1021.9 hPa | 0 mm | - | 0 W/m² | - |
| 1787989663 | 18.89° C | 89% | 1021.9 hPa | 0 mm | - | 0 W/m² | - |
| 1787989358 | 18.89° C | 88% | 1021.7 hPa | 0 mm | - | 0 W/m² | - |
| 1787989057 | 19.44° C | 87% | 1021.5 hPa | 0 mm | - | 0 W/m² | - |
| 1787988756 | 18.89° C | 88% | 1021.7 hPa | 0 mm | - | 0 W/m² | - |
| 1787988453 | 18.89° C | 88% | 1021.6 hPa | 0 mm | - | 0 W/m² | - |
| 1787988152 | 18.89° C | 88% | 1021.7 hPa | 0 mm | - | 0 W/m² | - |
* Rain latest hour (hover to see other rain measurements)
** Current wind speed in m/s (hover to see current wind gust speed)